Wind_Speed
25 42 50 52 56 52 53 52 48 55 55 59 60 43 34 34 26 33 32 42 43 48 42 40 40 37 35 40 44 43 41 41 39 38 34 35 33 37 40 35 34 36 38 38
37 30 38 52 52 53 53 50 54 57 54 52 58 41 40 35 33 37 36 37 41 39 40 39 39 38 35 41 46 44 43 41 40 37 37 32 34 40 35 33 34 36 36 33
32 22 29 27 53 53 48 52 51 57 60 59 54 50 51 39 37 39 39 34 31 35 37 38 36 34 39 45 46 46 44 42 41 44 33 31 39 35 32 31 33 35 33 32
28 29 14 22 34 48 49 49 50 50 52 52 58 62 53 44 40 43 38 44 44 45 37 37 37 36 43 48 47 46 44 43 38 38 29 34 34 31 30 30 32 32 30 34
17 26 32 38 26 42 50 55 52 52 53 53 55 55 52 49 48 45 42 44 39 39 41 44 41 44 50 49 48 47 45 44 38 40 31 31 31 28 26 28 29 27 31 29
18 19 10 23 22 29 35 45 49 57 55 59 65 53 55 53 49 46 50 41 41 50 48 48 52 51 46 47 49 51 44 43 35 39 30 28 26 24 24 26 25 28 26 21
35 21 23 51 39 31 34 29 27 32 39 44 44 55 56 52 49 46 40 44 44 48 48 51 52 48 46 51 57 50 40 39 37 31 25 25 22 21 21 22 24 23 19 17
39 28 20 23 23 34 26 30 19 11 13 26 28 31 35 43 46 47 44 42 40 45 45 45 43 45 50 58 51 37 38 37 27 23 24 22 19 19 20 19 20 16 15 14
22 20 29 29 24 19 25 27 24 23 18 20 15 7 10 20 27 49 47 40 40 40 41 42 45 53 57 53 37 35 42 22 20 23 22 18 17 18 17 15 13 12 10 9
25 34 36 33 21 30 29 32 33 31 26 19 11 6 24 30 33 29 28 42 44 44 44 45 51 58 45 37 39 32 18 19 21 21 19 17 17 16 14 11 9 9 8 8
32 28 28 37 35 42 29 33 35 26 27 20 18 21 29 26 27 27 28 25 28 28 36 43 43 44 35 29 25 16 20 21 20 19 18 16 17 16 14 12 8 7 6 7
25 19 24 27 27 23 21 19 24 26 23 16 20 23 22 24 20 19 21 21 19 25 28 33 38 30 27 21 15 22 21 22 21 20 18 17 17 16 14 13 12 8 7 6
30 28 20 24 19 12 13 20 22 19 20 16 14 15 18 19 16 16 19 21 28 26 30 27 27 25 14 18 20 19 21 21 20 19 19 18 17 16 15 15 14 11 8 8
16 25 21 16 18 16 12 10 21 31 29 25 23 17 16 17 18 16 18 21 23 19 21 21 16 18 19 19 19 21 20 20 19 19 18 18 17 16 15 15 13 11 11 8
16 13 12 13 17 19 18 16 15 10 13 16 16 16 18 18 19 20 20 20 20 21 18 18 20 20 19 19 20 20 18 19 18 18 18 18 16 16 15 13 12 12 11 7
20 20 26 24 20 19 17 19 19 16 19 17 16 18 16 16 17 19 20 16 11 15 19 19 17 18 19 19 19 19 19 18 17 17 17 16 14 14 13 11 11 9 10 6
23 19 17 19 19 18 16 20 20 19 20 17 22 21 21 22 21 22 22 21 20 19 15 15 17 19 18 17 17 17 17 15 15 16 15 13 13 11 10 9 8 9 8 6
20 19 18 17 15 17 25 23 21 18 21 27 26 26 24 22 19 19 17 16 17 18 17 16 16 16 15 15 14 12 12 14 16 16 15 13 13 11 10 9 9 8 7 6
22 26 26 24 25 24 24 26 22 26 27 25 22 18 14 12 12 12 13 14 15 16 15 14 14 14 14 13 12 12 13 15 16 16 14 14 13 12 10 10 9 8 7 6
14 17 21 22 25 28 27 28 29 28 25 23 21 17 15 15 16 16 16 17 17 16 14 13 14 13 13 13 13 13 14 14 15 16 16 15 14 11 10 11 10 9 7 6
17 20 21 24 26 30 30 30 26 23 21 17 16 15 14 15 16 17 17 17 17 16 14 15 14 14 15 14 13 12 12 12 13 14 15 14 13 12 11 11 10 8 7 6
18 20 21 21 21 22 21 20 17 14 13 13 12 14 18 18 19 19 19 18 18 16 15 15 16 16 16 15 13 13 11 10 11 12 13 13 13 12 12 11 9 8 7 6
15 14 13 11 9 8 8 7 6 7 9 11 13 15 16 17 17 18 17 17 18 19 18 17 18 17 15 15 14 12 10 10 10 11 12 12 13 12 11 10 10 9 8 7
9 7 5 4 3 3 6 8 10 12 13 15 16 17 17 16 17 16 15 17 20 21 20 19 16 15 14 13 11 10 11 10 11 12 12 12 12 11 10 10 9 8 7 6
5 4 5 6 8 9 10 12 13 14 15 16 16 17 18 17 16 15 17 19 20 19 19 17 15 14 12 11 11 11 11 12 11 12 12 11 10 9 9 9 8 8 7 7
7 8 8 8 9 9 10 10 11 12 12 14 16 16 15 14 15 16 17 18 18 18 17 16 14 13 12 12 12 13 12 12 12 12 11 11 10 10 10 9 9 8 7 5
10 10 10 9 8 8 9 9 10 11 12 13 13 13 14 14 14 15 16 17 17 17 16 15 15 14 14 13 14 14 14 14 13 13 12 11 10 10 10 9 8 7 6 6
Wind_Direction
278 249 242 235 232 231 233 228 226 237 236 248 258 257 256 255 246 240 236 232 246 243 238 238 238 245 248 251 251 247 243 243 245 249 255 265 276 286 297 292 293 294 297 301
302 262 248 243 236 231 227 233 235 239 244 247 253 258 254 249 250 247 245 246 247 237 237 238 238 243 249 258 251 244 240 242 245 250 260 269 280 290 288 289 292 297 301 304
281 291 300 256 238 231 236 236 234 234 238 246 251 253 251 249 248 250 242 240 246 242 247 245 241 250 262 261 250 243 240 241 243 259 264 274 285 285 286 290 297 302 303 305
287 304 271 268 245 236 243 241 240 243 243 247 251 252 255 255 252 244 239 238 243 246 244 231 255 261 263 255 243 241 238 241 251 256 265 276 282 282 288 297 302 302 305 306
251 281 285 274 264 232 233 242 239 243 245 245 252 256 257 253 249 243 236 234 242 241 248 252 248 261 260 246 238 234 236 243 251 262 271 277 275 284 293 300 301 305 306 304
234 246 283 279 260 248 243 245 245 240 247 252 247 256 254 252 249 250 250 234 243 239 240 242 252 253 248 236 233 232 238 245 251 266 271 268 276 287 297 302 303 309 306 304
229 236 262 266 266 264 237 231 266 245 248 247 249 249 258 251 251 249 243 244 246 239 245 247 247 243 231 227 230 243 237 242 250 263 263 270 279 289 298 297 307 307 311 311
221 223 233 264 256 243 264 240 248 225 243 242 255 256 250 245 242 241 244 240 241 241 238 234 236 232 228 232 239 230 235 240 255 255 263 270 279 288 295 295 306 316 319 320
224 223 231 249 248 225 238 230 227 217 214 194 210 178 262 234 237 238 234 232 227 230 230 238 232 220 224 233 228 225 236 234 245 255 264 270 275 283 289 295 310 320 324 326
244 248 260 262 269 244 245 230 235 224 218 216 231 259 245 239 244 240 242 240 242 242 240 234 222 219 235 222 224 232 218 236 247 256 263 267 270 279 280 290 306 317 316 319
248 253 259 268 283 299 279 229 209 220 222 215 229 232 240 244 242 243 245 253 242 240 235 227 223 227 223 220 211 206 229 241 249 260 263 262 266 275 274 269 281 287 295 309
241 249 276 280 274 301 262 223 216 215 217 245 241 236 235 235 224 225 231 231 224 232 231 225 219 209 207 196 201 225 238 247 256 262 260 258 263 270 267 258 257 258 266 290
246 247 262 246 261 282 307 268 235 220 227 240 234 234 229 223 234 245 240 218 220 223 220 213 205 196 184 204 224 240 249 256 259 258 255 255 257 262 257 248 248 252 257 275
232 237 229 238 251 242 225 265 235 234 230 231 229 222 231 245 264 218 218 215 213 191 179 172 168 185 206 222 237 249 255 259 258 255 251 251 252 254 248 244 244 248 251 265
278 247 242 247 243 239 241 233 230 228 231 224 219 238 252 256 221 209 201 189 175 163 168 179 195 207 221 238 251 261 263 264 261 252 245 244 244 243 238 236 239 243 249 249
261 261 249 255 257 237 238 235 230 233 214 224 231 230 204 193 183 167 167 167 161 173 190 202 212 226 240 253 260 263 266 263 253 235 233 234 235 232 228 224 228 236 250 262
259 251 235 251 249 248 233 221 220 220 221 227 190 179 170 163 159 167 173 180 186 197 205 216 230 244 255 257 261 264 262 244 224 225 229 229 228 219 217 215 224 235 243 253
239 234 237 227 224 190 205 206 206 213 197 183 178 173 170 175 182 187 191 194 203 210 222 234 245 249 251 255 257 249 234 223 222 224 226 226 224 217 218 223 230 235 237 236
233 223 219 215 209 213 197 199 187 174 167 162 164 169 174 183 189 195 200 206 217 228 232 239 245 241 241 244 241 237 229 225 223 225 224 224 223 217 216 221 226 224 225 231
226 210 212 213 210 207 203 169 173 169 168 174 173 187 201 206 208 212 212 214 215 220 231 238 232 227 228 228 236 233 229 226 222 221 220 219 217 214 218 225 222 220 221 225
169 165 164 157 151 147 156 166 173 180 176 189 194 198 212 223 224 224 222 217 217 225 234 228 221 218 215 223 225 222 217 210 207 209 209 211 212 213 219 222 221 220 221 219
124 127 130 137 148 155 158 161 163 167 177 180 180 211 221 221 224 222 219 220 220 222 220 220 210 208 213 213 205 201 204 209 211 212 211 211 211 212 215 220 223 224 224 221
140 136 137 141 146 155 159 162 173 210 223 222 220 222 225 226 220 221 224 227 216 206 209 207 205 208 206 202 200 202 205 211 214 217 215 211 210 212 218 222 224 225 221 215
146 144 147 155 175 212 233 238 234 229 228 229 228 226 217 216 221 224 223 207 206 204 199 202 206 207 203 201 203 208 212 213 215 217 217 214 212 214 216 213 211 204 200 202
187 226 246 254 254 250 246 242 238 237 234 229 220 212 211 214 212 211 204 197 198 199 201 203 205 204 202 208 213 213 212 212 212 211 207 202 197 193 189 187 188 191 197 200
235 243 245 244 245 249 246 235 222 214 212 210 207 206 208 209 207 201 197 201 200 198 200 202 203 205 209 211 211 211 210 204 197 192 187 183 183 181 182 186 189 191 196 207
237 242 242 236 233 223 209 199 193 188 184 185 192 201 203 203 204 201 202 200 200 200 198 198 203 206 208 210 210 205 199 195 191 186 181 178 182 184 185 189 194 199 207 220
Height
2938 2940 2946 2946 2948 2951 2952 2956 2961 2963 2967 2964 2962 2976 2981 2983 2984 2987 2990 2987 2988 2989 2992 2995 2998 3002 3004 3004 3006 3008 3010 3013 3016 3018 3019 3020 3021 3020 3017 3014 3011 3008 3004 2998
2936 2934 2936 2932 2933 2937 2943 2949 2950 2953 2957 2958 2952 2968 2969 2973 2976 2975 2979 2979 2979 2981 2984 2987 2991 2994 2996 2995 2998 3000 3003 3006 3008 3009 3011 3011 3012 3011 3008 3006 3003 2999 2993 2989
2934 2931 2924 2916 2921 2925 2927 2933 2940 2939 2941 2945 2951 2955 2953 2964 2967 2965 2970 2971 2972 2974 2978 2981 2982 2985 2986 2987 2989 2991 2995 2997 2998 3000 3001 3004 3004 3002 2999 2997 2994 2989 2984 2980
2923 2924 2918 2908 2914 2920 2922 2924 2930 2931 2934 2937 2937 2938 2946 2954 2956 2958 2958 2961 2965 2968 2970 2972 2974 2976 2977 2977 2981 2983 2987 2989 2990 2992 2995 2997 2995 2993 2991 2988 2985 2981 2977 2973
2926 2923 2911 2907 2907 2910 2911 2908 2917 2923 2925 2923 2927 2932 2934 2939 2941 2944 2949 2949 2956 2959 2962 2962 2965 2967 2966 2967 2971 2975 2977 2981 2983 2984 2988 2989 2987 2985 2983 2980 2977 2974 2969 2964
2919 2922 2910 2896 2898 2905 2908 2900 2906 2904 2910 2911 2915 2918 2915 2924 2930 2931 2933 2937 2942 2944 2947 2950 2951 2952 2955 2959 2962 2964 2967 2973 2975 2979 2980 2981 2979 2977 2975 2973 2970 2966 2961 2957
2907 2910 2898 2883 2896 2893 2888 2891 2892 2895 2896 2897 2900 2900 2904 2914 2915 2918 2920 2925 2926 2929 2934 2937 2939 2941 2944 2949 2950 2954 2960 2966 2968 2971 2973 2972 2971 2970 2968 2967 2963 2959 2954 2950
2896 2898 2893 2887 2886 2884 2884 2883 2885 2887 2886 2886 2888 2889 2892 2896 2901 2904 2908 2912 2916 2918 2921 2923 2927 2931 2933 2936 2943 2948 2956 2958 2962 2964 2965 2965 2964 2963 2963 2961 2957 2952 2949 2947
2876 2874 2875 2874 2875 2869 2870 2874 2875 2877 2879 2878 2880 2878 2887 2886 2888 2890 2896 2900 2902 2904 2907 2913 2917 2921 2924 2930 2936 2943 2947 2952 2956 2957 2958 2958 2957 2957 2956 2954 2950 2948 2946 2945
2869 2864 2865 2869 2870 2864 2865 2866 2868 2870 2872 2870 2871 2873 2880 2882 2881 2882 2882 2886 2890 2893 2896 2899 2904 2913 2920 2923 2929 2937 2942 2947 2949 2950 2950 2950 2951 2951 2950 2949 2946 2945 2944 2942
2856 2860 2865 2863 2858 2859 2855 2856 2859 2862 2864 2864 2866 2869 2875 2878 2877 2878 2879 2880 2882 2885 2889 2893 2901 2909 2913 2921 2927 2932 2937 2940 2942 2943 2943 2944 2945 2945 2944 2944 2943 2943 2941 2940
2852 2857 2852 2845 2853 2853 2843 2845 2851 2853 2858 2860 2863 2865 2868 2869 2872 2874 2874 2876 2878 2881 2887 2892 2896 2905 2912 2917 2923 2928 2931 2933 2935 2936 2937 2938 2939 2939 2939 2939 2939 2939 2938 2936
2842 2842 2837 2847 2849 2848 2844 2843 2845 2850 2852 2858 2861 2860 2864 2867 2869 2870 2872 2873 2875 2880 2884 2891 2897 2903 2908 2916 2921 2923 2925 2927 2928 2930 2932 2932 2933 2933 2934 2935 2935 2935 2933 2934
2834 2839 2840 2844 2845 2845 2844 2844 2842 2846 2850 2853 2855 2858 2860 2862 2866 2867 2868 2871 2875 2881 2886 2891 2898 2904 2910 2913 2915 2918 2919 2920 2922 2924 2926 2927 2928 2929 2931 2931 2931 2931 2931 2931
2835 2835 2837 2839 2839 2842 2842 2843 2842 2843 2845 2848 2850 2854 2856 2860 2863 2864 2867 2870 2877 2882 2888 2894 2900 2904 2907 2910 2912 2913 2914 2915 2917 2919 2920 2922 2923 2925 2927 2926 2925 2927 2929 2927
2832 2834 2834 2833 2834 2837 2839 2839 2841 2842 2845 2847 2849 2851 2854 2858 2861 2865 2869 2875 2878 2883 2889 2894 2900 2903 2904 2906 2907 2908 2909 2909 2911 2914 2917 2917 2920 2920 2922 2922 2922 2924 2926 2925
2825 2827 2829 2829 2831 2836 2837 2837 2839 2841 2843 2845 2848 2851 2855 2859 2863 2868 2872 2876 2880 2885 2889 2894 2897 2899 2900 2901 2903 2904 2905 2906 2907 2912 2913 2914 2917 2917 2918 2919 2920 2921 2921 2921
2818 2821 2823 2826 2829 2832 2832 2835 2837 2839 2842 2845 2850 2855 2859 2863 2866 2868 2871 2875 2880 2884 2887 2889 2892 2894 2896 2898 2900 2900 2901 2903 2906 2909 2910 2912 2915 2914 2915 2916 2918 2919 2919 2919
2811 2814 2817 2821 2824 2828 2832 2832 2834 2842 2845 2848 2852 2857 2860 2863 2865 2869 2871 2874 2878 2883 2885 2886 2888 2891 2893 2894 2897 2898 2900 2902 2903 2907 2908 2910 2912 2912 2912 2914 2916 2917 2918 2919
2807 2809 2813 2816 2820 2824 2829 2833 2839 2842 2845 2846 2851 2856 2859 2861 2863 2867 2870 2873 2876 2879 2881 2883 2885 2887 2890 2892 2895 2897 2899 2900 2901 2904 2905 2908 2909 2909 2911 2914 2914 2916 2915 2916
2805 2806 2809 2812 2816 2820 2826 2832 2836 2840 2844 2850 2850 2852 2856 2860 2863 2866 2868 2870 2874 2876 2878 2881 2883 2885 2888 2891 2893 2895 2898 2899 2900 2903 2904 2905 2907 2908 2910 2912 2914 2914 2914 2915
2812 2813 2816 2819 2823 2826 2830 2834 2837 2840 2844 2845 2844 2852 2857 2858 2861 2864 2866 2869 2871 2873 2876 2879 2882 2885 2888 2889 2891 2894 2896 2899 2901 2903 2903 2904 2906 2907 2908 2910 2912 2913 2913 2914
2816 2818 2821 2823 2826 2828 2831 2833 2835 2838 2840 2843 2847 2850 2853 2856 2859 2862 2863 2865 2867 2870 2874 2878 2882 2884 2886 2888 2890 2892 2893 2897 2898 2902 2903 2903 2904 2905 2906 2908 2909 2911 2912 2913
2819 2821 2823 2825 2827 2829 2831 2833 2835 2837 2840 2843 2845 2848 2850 2853 2856 2858 2860 2862 2865 2869 2874 2877 2880 2882 2884 2886 2887 2890 2892 2894 2896 2899 2902 2902 2902 2903 2905 2906 2908 2910 2911 2913
2820 2822 2823 2824 2825 2827 2828 2830 2832 2835 2837 2839 2842 2845 2848 2850 2853 2855 2858 2861 2865 2869 2872 2875 2877 2880 2881 2883 2886 2888 2891 2893 2896 2898 2899 2900 2901 2902 2904 2906 2908 2909 2911 2912
2819 2821 2822 2823 2824 2825 2826 2828 2830 2832 2834 2837 2840 2843 2846 2849 2852 2854 2857 2860 2864 2867 2870 2872 2875 2877 2880 2883 2885 2888 2890 2892 2895 2897 2898 2899 2900 2902 2904 2906 2908 2909 2910 2911
2818 2819 2821 2822 2823 2824 2826 2828 2830 2832 2834 2837 2840 2843 2845 2848 2851 2854 2856 2859 2862 2865 2868 2870 2873 2876 2879 2881 2884 2887 2889 2892 2894 2896 2897 2898 2900 2902 2904 2906 2907 2908 2909 2910